Regional Weather Roundup
Issued by NWS Upton, NY

Current Version | Previous Version | Text Only | Print | Product List | Glossary On
Versions: 1 2 3 4 5 6 7 8 9 10 11 12 13 14 15 16 17 18 19 20 21 22 23 24 25 26 27 28 29 30 31 32 33 34 35 36 37 38 39 40 41 42 43 44 45 46 47 48 49 50
000
ASUS41 KOKX 062108
RWROKX

REGIONAL WEATHER ROUNDUP
NATIONAL WEATHER SERVICE NEW YORK NY
500 PM EDT WED MAY 06 2015

NOTE: "FAIR" INDICATES FEW OR NO CLOUDS BELOW 12,000 FEET WITH NO
SIGNIFICANT WEATHER AND/OR OBSTRUCTIONS TO VISIBILITY.

NYZ071-072-176-178-NJZ106-104-062200-
NEW YORK CITY METRO AREA


CITY           SKY/WX    TMP DP  RH WIND       PRES   REMARKS
CENTRAL PARK   CLOUDY    68  41  37 E6        30.27F
LAGUARDIA APRT PTSUNNY   65  42  43 NE12G21   30.24F
KENNEDY INTL   PTSUNNY   66  47  50 E14       30.25S
NEWARK/LIBERTY PTSUNNY   70  39  32 E6        30.23F
BRNX BOT. GARD   N/A     64  45  48 CALM      30.27R
TETERBORO      CLOUDY    68  41  37 E6        30.23F
$$

NYZ177-179-078>081-062200-
LONG ISLAND NEW YORK

CITY           SKY/WX    TMP DP  RH WIND       PRES   REMARKS
FARMINGDALE    PTSUNNY   65  44  46 SE12      30.24F
ISLIP          CLOUDY    68  31  25 SE16      30.23S
SHIRLEY        PTSUNNY   68  32  26 SE8       30.25S
WESTHAMPTON    PTSUNNY   66  32  28 E12       30.26S
MONTAUK POINT    N/A     63  40  42 VRB3      30.25F
$$

NYZ052-065-067-062200-
HUDSON VALLEY

CITY           SKY/WX    TMP DP  RH WIND       PRES   REMARKS
WHITE PLAINS   PTSUNNY   65  47  52 E8        30.24F
NEWBURGH       PTSUNNY   68  41  37 CALM      30.25F
MONTGOMERY     PTSUNNY   70  41  34 N3        30.22F
POUGHKEEPSIE   PTSUNNY   71  40  32 VRB3      30.22F
ALBANY         MOSUNNY   77  28  16 N5        30.18F
$$

NJZ001-105-106-008-010-013-015-019>022-104-062200-
NEW JERSEY

CITY           SKY/WX    TMP DP  RH WIND       PRES   REMARKS
NEWARK/LIBERTY PTSUNNY   70  39  32 E6        30.23F
TETERBORO      CLOUDY    68  41  37 E6        30.23F
CALDWELL       CLOUDY    67  40  37 SE5       30.24F
MORRISTOWN     CLOUDY    68  43  40 SE5       30.24F
SOMERVILLE     PTSUNNY   69  47  45 SE3       30.22F
SUSSEX         CLOUDY    68  46  45 CALM      30.25F
ANDOVER          N/A     66  48  52 N3        30.24F
TRENTON        CLOUDY    66  44  45 E8        30.23F
MILLVILLE      SUNNY     73  53  49 E9        30.19F
ATLANTIC CITY  MOSUNNY   66  50  56 NE13      30.22F
WRIGHTSTOWN    MOSUNNY   67  47  49 E9        30.20F
TOMS RIVER     PTSUNNY   64  46  52 E7        30.24F
BELMAR         CLOUDY    61  46  59 E9        30.25S
$$

PAZ047>061-062-071-062200-
EASTERN PENNSYLVANIA

CITY           SKY/WX    TMP DP  RH WIND       PRES   REMARKS
PHILADELPHIA   CLOUDY    74  49  41 E9        30.20F
ALLENTOWN      CLOUDY    66  50  56 E5        30.24F
SCRANTON       CLOUDY    67  49  52 N8        30.23F
$$

CTZ002-004>006-009-010-012-RIZ004-006-007-MAZ004-011-015-062200-
SOUTHERN NEW ENGLAND
 IN CT

CITY           SKY/WX    TMP DP  RH WIND       PRES   REMARKS
BRADLEY INTL   PTSUNNY   74  33  22 S8        30.20F
HARTFORD       PTSUNNY   72  35  25 VRB7      30.21F
DANBURY        CLOUDY    66  39  37 SE9       30.25F
WTRBRY/OXFORD  MOSUNNY   66  37  34 SW7       30.25S
BRIDGEPORT     PTSUNNY   64  45  49 E9        30.24F
MERIDEN        CLOUDY    71  36  27 S12       30.23S
NEW HAVEN      CLOUDY    63  39  41 SE9       30.25S
CHESTER        FAIR      66  32  28 S9        30.25S
GROTON         PTSUNNY   60  38  43 SE9       30.23F
WILLIMANTIC    PTSUNNY   73  34  23 S5        30.21F

 IN RI

CITY           SKY/WX    TMP DP  RH WIND       PRES   REMARKS
PROVIDENCE     PTSUNNY   68  32  26 S14       30.22F
BLOCK ISLAND   PTSUNNY   61  36  39 E12       30.25S
WESTERLY       PTSUNNY   62  33  33 SE9       30.24F

 IN MA

CITY           SKY/WX    TMP DP  RH WIND       PRES   REMARKS
BOSTON         MOSUNNY   67  43  41 SE9       30.17
WORCESTER      SUNNY     72  28  19 SW7       30.20F
WESTFIELD      MOSUNNY   76  30  18 S10       30.19F
PROVINCETOWN   SUNNY     66  36  32 S8        30.22F
NANTUCKET      MOSUNNY   60  34  37 SE8       30.24S
$$

ANZ330-335-338-340-345-350-353-355-062200-
COASTAL MARINE OBSERVATIONS


STATION/POSITION TIME  SKY/WX   TEMP    WIND        PRES    VSBY  WAVE
                                AIR SEA DIR/SP/G                  HT/PER
                 (UTC)          (F)     (DEG/KT/KT) (MB)    (MI)  (FT/S)
NY HARB ENTRANCE 2050            56 53   50/  8/ 10 1024.1          2/ 5
4S FIRE IS       2003               51                N/A           2/ 6
20S FIRE ISLAND  2050            51 49   50/ 10/ 12 1023.7          3/ 6
GREAT SOUTH BAY  2000            60 61   90/ 14/ 17   N/A
23SW MTP         2050            50 48   40/  6/  6 1023.7          3/ 6
HUDSON CANYON    NOT AVBL
KINGS POINT      2000            60 47   20/  6/  8 1023.8
EASTERN LI SOUND 2000            52     130/  4/  4   N/A
ROBBINS REEF     2000            65      30/  9/ 10 1023.1
$$


>>>>>>>>>>>>>>>>>>>>>>>>>>>> KEY <<<<<<<<<<<<<<<<<<<<<<<<<<<
>                                                          <
>     SKY/WX - SKY CONDITION/PRESENT WEATHER               <
>     TMP    - TEMPERATURE IN FAHRENHEIT                   <
>     DP     - DEWPOINT IN FAHRENHEIT                      <
>     RH     - RELATIVE HUMIDITY IN PERCENT                <
>     WIND   - DIRECTION AND SPEED IN MPH                  <
>     PRES   - MEAN SEA LEVEL PRESSURE IN INCHES OF HG     <
>     WCI    - WIND CHILL INDEX                            <
>     VSB    - VISIBILITY IN MILES                         <
>     HX     - HEAT INDEX                                  <
>     TC     - TEMPERATURE IN CELSIUS                      <
>     VRB    - VARIABLE WIND DIRECTION                     <
>                                                          <
>>>>>>>>>>>>>>>>>>>>>>>>>>>> KEY <<<<<<<<<<<<<<<<<<<<<<<<<<<





USA.gov is the U.S. government's official web portal to all federal, state and local government web resources and services.